DELTA 1 DEB, 10214

Orbit data source: Space-Track

DELTA 1 DEB, 10214 is space debris in LEO originally from a launch on Thu, 14 Jul 1977 UTC launched from the Air Force Eastern Test Range (AFETR). Debris objects in space refer to the collection of defunct objects orbiting the Earth. Examples of debris include non-operational satellites, rocket bodies, and fragments generated from explosions, collisions, or faulty payload assembly.

Loading next visibility...
Identifier
10214, 1977-065AT
Orbit
LEO
Country
Flag of USUS
Related business
Manufacturer
Unknown
Mission
Spacecraft
Bus & Motor
Unknown
Mass
Unknown
Launch date (UTC)
1977-07-14 (49 years ago)
Launch vehicle
Unknown
Launch site
Air Force Eastern Test Range (AFETR)
Object type
Payload
Rocket body
Debris
Shape & HBR
Unknown shape, 0.1 m
Radar Cross Section
Medium (>0.1 m² and <1 m²)

Expand to show TLE details & history
Last TLE update: 2 days ago

TLE from 2 days ago
0 DELTA 1 DEB
1 10214U 77065AT  26171.34729492  .00002583  00000-0  86971-3 0  9992
2 10214  28.8752 195.9464 0493012  12.9052 348.3643 13.83108704353690
Epoch: 2026-06-20T08:20Z
TLE epoch observation values (Epoch: 2026-06-20T08:20:06.281Z)
Latitude
-0.00003°
Longitude
162.35695°
Altitude
598.148 km
Speed
7.743 km/s
True Right ascension
13h 03m 47s
True Declination
0° 00' 00"
Sunlit
Object was in daylight at epoch
Visualization orbit readout
Latitude
Unknown
Longitude
Unknown
Altitude
Unknown
Speed
Unknown
Apparent Right ascension
Unknown
Apparent Declination
Unknown
Sunlit
N/A
Visualization observer readout
Local Sidereal Time
05:35:32
Azimuth
Unknown
Elevation
Unknown
Doppler factor
Unknown
Orbital elements
Apogee altitude
1,318.429 km
Perigee altitude
595.186 km
Semi-major axis
7,334.945 km
Eccentricity
0.0493
Inclination
28.8752°
RAAN
195.9464°
Arg. of periapsis
12.9052°
True anomaly
347.15196°
Mean anomaly
348.3643°
Eccentric anomaly
347.76571°
Mean motion
3.455 °/min
Orbital period
104.2 mins
BSTAR
0.00086971
Loading maneuver chart data...
Computing Atmospheric mass density...
Loading historical data...
Loading historical data...
Loading historical data...
Loading historical data...
Loading historical data...
Loading historical data...
Loading historical data...

Documentation

Showing up to 5 results
|